| time (UTC) | temp F | wind direction | speed MPH | gust MPH | rain 1hr in | rain 24hr in | rain mn in | humidity % | barometer mb |
| 20260906081537 | 65 | 0.0 | 1.0 | 0.00 | 0.01 | 0.00 | 72 | 1026.5 | |
| 20260906080537 | 65 | 0.0 | 0.0 | 0.00 | 0.01 | 0.00 | 72 | 1026.5 | |
| 20260906075517 | 64 | 0.0 | 0.0 | 0.00 | 0.01 | 0.00 | 79 | 1026.6 | |
| 20260906074517 | 63 | 0.0 | 0.0 | 0.00 | 0.01 | 0.00 | 83 | 1026.6 | |
| 20260906073517 | 62 | 0.0 | 0.0 | 0.00 | 0.01 | 0.00 | 87 | 1026.7 | |
| 20260906072517 | 62 | 0.0 | 2.0 | 0.00 | 0.01 | 0.00 | 90 | 1026.6 | |
| 20260906071517 | 61 | 0.0 | 0.0 | 0.00 | 0.01 | 0.00 | 93 | 1026.7 | |
| 20260906070517 | 60 | 0.0 | 0.0 | 0.00 | 0.01 | 0.00 | 93 | 1026.6 | |
| 20260906065517 | 59 | 0.0 | 0.0 | 0.00 | 0.02 | 0.00 | 93 | 1026.4 | |
| 20260906064517 | 59 | 0.0 | 1.0 | 0.00 | 0.02 | 0.00 | 94 | 1026.4 | |
| 20260906063537 | 58 | 0.0 | 0.0 | 0.00 | 0.02 | 0.00 | 94 | 1026.3 | |
| 20260906062517 | 58 | 0.0 | 0.0 | 0.00 | 0.02 | 0.00 | 94 | 1026.1 | |
| 20260906061517 | 56 | 0.0 | 0.0 | 0.00 | 0.02 | 0.00 | 94 | 1025.9 | |
| 20260906060517 | 55 | 0.0 | 0.0 | 0.00 | 0.02 | 0.00 | 93 | 1026.1 | |
| 20260906055517 | 55 | 0.0 | 0.0 | 0.00 | 0.02 | 0.00 | 92 | 1026.0 | |
| 20260906054517 | 54 | 0.0 | 0.0 | 0.00 | 0.02 | 0.00 | 92 | 1025.8 | |
| 20260906053517 | 54 | 0.0 | 0.0 | 0.00 | 0.02 | 0.00 | 92 | 1025.9 | |
| 20260906052517 | 54 | 0.0 | 0.0 | 0.00 | 0.02 | 0.00 | 91 | 1025.8 | |
| 20260906051517 | 55 | 0.0 | 0.0 | 0.00 | 0.02 | 0.00 | 91 | 1025.9 | |
| 20260906050537 | 55 | 0.0 | 0.0 | 0.00 | 0.02 | 0.00 | 91 | 1025.8 | |
| 20260906045517 | 55 | 0.0 | 0.0 | 0.00 | 0.02 | 0.00 | 91 | 1025.8 | |
| 20260906044517 | 55 | 0.0 | 0.0 | 0.00 | 0.02 | 0.00 | 91 | 1025.7 | |
| 20260906043537 | 55 | 0.0 | 0.0 | 0.00 | 0.02 | 0.00 | 91 | 1025.7 | |
| 20260906042517 | 56 | 0.0 | 0.0 | 0.00 | 0.02 | 0.00 | 91 | 1025.7 | |
| 20260906041517 | 56 | 0.0 | 0.0 | 0.00 | 0.02 | 0.00 | 91 | 1025.7 | |
| 20260906040517 | 57 | 0.0 | 0.0 | 0.00 | 0.02 | 0.00 | 91 | 1025.8 | |
| 20260906035517 | 57 | 0.0 | 0.0 | 0.00 | 0.02 | 0.00 | 91 | 1025.9 | |
| 20260906034517 | 57 | 0.0 | 0.0 | 0.00 | 0.02 | 0.00 | 91 | 1025.9 | |
| 20260906033517 | 58 | 0.0 | 0.0 | 0.00 | 0.02 | 0.00 | 91 | 1025.8 | |
| 20260906032517 | 58 | 0.0 | 0.0 | 0.00 | 0.02 | 0.00 | 91 | 1025.8 | |
| 20260906031517 | 59 | 0.0 | 0.0 | 0.00 | 0.02 | 0.00 | 91 | 1025.8 | |
| 20260906030517 | 59 | 0.0 | 0.0 | 0.00 | 0.02 | 0.00 | 92 | 1025.9 | |
| 20260906025517 | 59 | 0.0 | 0.0 | 0.00 | 0.02 | 0.00 | 92 | 1025.8 | |
| 20260906024537 | 59 | 0.0 | 0.0 | 0.00 | 0.02 | 0.00 | 92 | 1025.8 | |
| 20260906023517 | 59 | 0.0 | 0.0 | 0.00 | 0.02 | 0.00 | 92 | 1025.7 | |
| 20260906022517 | 59 | 0.0 | 0.0 | 0.00 | 0.02 | 0.00 | 92 | 1025.7 | |
| 20260906021517 | 59 | 0.0 | 0.0 | 0.00 | 0.02 | 0.00 | 91 | 1025.6 | |
| 20260906020517 | 59 | 0.0 | 0.0 | 0.00 | 0.02 | 0.00 | 91 | 1025.7 | |
| 20260906015517 | 59 | 0.0 | 0.0 | 0.00 | 0.02 | 0.00 | 91 | 1025.8 | |
| 20260906014517 | 59 | 0.0 | 0.0 | 0.00 | 0.02 | 0.00 | 91 | 1025.7 | |
| 20260906013517 | 59 | 0.0 | 0.0 | 0.00 | 0.02 | 0.00 | 91 | 1025.6 | |
| 20260906012517 | 59 | 0.0 | 0.0 | 0.00 | 0.02 | 0.00 | 91 | 1025.7 | |
| 20260906011517 | 59 | 0.0 | 0.0 | 0.00 | 0.02 | 0.00 | 91 | 1025.7 | |
| 20260906010517 | 59 | 0.0 | 0.0 | 0.00 | 0.02 | 0.00 | 91 | 1025.6 | |
| 20260906005517 | 59 | 0.0 | 0.0 | 0.00 | 0.02 | 0.00 | 91 | 1025.8 | |
| 20260906004517 | 59 | 0.0 | 0.0 | 0.00 | 0.02 | 0.00 | 90 | 1025.8 | |
| 20260906003517 | 59 | 0.0 | 0.0 | 0.00 | 0.02 | 0.00 | 90 | 1025.8 | |
| 20260906002517 | 59 | 0.0 | 0.0 | 0.00 | 0.02 | 0.00 | 90 | 1025.6 | |
| 20260906001537 | 59 | 0.0 | 0.0 | 0.00 | 0.02 | 0.00 | 90 | 1025.6 | |
| 20260906000517 | 59 | 0.0 | 0.0 | 0.00 | 0.02 | 0.00 | 90 | 1025.7 | |
| 20260905235517 | 59 | 0.0 | 0.0 | 0.00 | 0.02 | 0.00 | 90 | 1025.7 | |
| 20260905234537 | 60 | 0.0 | 0.0 | 0.00 | 0.02 | 0.00 | 89 | 1025.8 | |
| 20260905233517 | 60 | 0.0 | 0.0 | 0.00 | 0.02 | 0.00 | 89 | 1025.7 | |
| 20260905232537 | 60 | 0.0 | 0.0 | 0.00 | 0.02 | 0.00 | 89 | 1025.7 | |
| 20260905231517 | 60 | 0.0 | 0.0 | 0.00 | 0.02 | 0.00 | 89 | 1025.7 | |
| 20260905230537 | 60 | 0.0 | 0.0 | 0.00 | 0.02 | 0.00 | 89 | 1025.7 | |
| 20260905225516 | 60 | 0.0 | 0.0 | 0.00 | 0.02 | 0.00 | 89 | 1025.9 | |
| 20260905224536 | 60 | 0.0 | 0.0 | 0.00 | 0.02 | 0.00 | 88 | 1025.8 | |
| 20260905223517 | 60 | 0.0 | 0.0 | 0.00 | 0.02 | 0.00 | 88 | 1025.8 | |
| 20260905222517 | 60 | 0.0 | 0.0 | 0.00 | 0.02 | 0.00 | 88 | 1025.8 | |
| 20260905221516 | 61 | 0.0 | 0.0 | 0.00 | 0.02 | 0.00 | 88 | 1025.8 | |
| 20260905220517 | 61 | 0.0 | 0.0 | 0.00 | 0.02 | 0.00 | 88 | 1025.7 | |
| 20260905215517 | 61 | 0.0 | 0.0 | 0.00 | 0.02 | 0.02 | 87 | 1025.7 | |
| 20260905214517 | 61 | 0.0 | 0.0 | 0.00 | 0.02 | 0.02 | 87 | 1025.7 | |
| 20260905213517 | 62 | 0.0 | 0.0 | 0.00 | 0.02 | 0.02 | 88 | 1025.7 | |
| 20260905212557 | 62 | 0.0 | 0.0 | 0.00 | 0.02 | 0.02 | 87 | 1025.7 | |
| 20260905211517 | 62 | 0.0 | 0.0 | 0.00 | 0.02 | 0.02 | 87 | 1025.6 | |
| 20260905210517 | 62 | 0.0 | 0.0 | 0.00 | 0.02 | 0.02 | 87 | 1025.4 | |
| 20260905205537 | 62 | 0.0 | 0.0 | 0.00 | 0.02 | 0.02 | 87 | 1025.4 | |
| 20260905204557 | 62 | 0.0 | 0.0 | 0.00 | 0.02 | 0.02 | 86 | 1025.3 | |
| 20260905203517 | 62 | 0.0 | 0.0 | 0.00 | 0.02 | 0.02 | 86 | 1025.4 | |
| 20260905202517 | 63 | 0.0 | 0.0 | 0.00 | 0.02 | 0.02 | 85 | 1025.3 | |
| 20260905201517 | 63 | 0.0 | 0.0 | 0.00 | 0.02 | 0.02 | 85 | 1025.3 | |
| 20260905200517 | 63 | 0.0 | 0.0 | 0.00 | 0.02 | 0.02 | 85 | 1025.2 | |
| 20260905195537 | 63 | 0.0 | 0.0 | 0.00 | 0.02 | 0.02 | 84 | 1025.2 | |
| 20260905194517 | 64 | 0.0 | 0.0 | 0.00 | 0.02 | 0.02 | 84 | 1025.1 | |
| 20260905193515 | 64 | 0.0 | 0.0 | 0.00 | 0.02 | 0.02 | 83 | 1025.0 | |
| 20260905192517 | 64 | 0.0 | 0.0 | 0.00 | 0.02 | 0.02 | 83 | 1025.0 | |
| 20260905191517 | 65 | 0.0 | 0.0 | 0.00 | 0.02 | 0.02 | 83 | 1025.0 | |
| 20260905190517 | 65 | 0.0 | 0.0 | 0.00 | 0.02 | 0.02 | 82 | 1024.9 | |
| 20260905185517 | 65 | 0.0 | 0.0 | 0.00 | 0.02 | 0.02 | 81 | 1024.9 | |
| 20260905184517 | 66 | 0.0 | 0.0 | 0.00 | 0.02 | 0.02 | 79 | 1024.6 | |
| 20260905183517 | 66 | 0.0 | 0.0 | 0.00 | 0.02 | 0.02 | 79 | 1024.4 | |
| 20260905182537 | 66 | 0.0 | 0.0 | 0.00 | 0.02 | 0.02 | 78 | 1024.3 | |
| 20260905181517 | 67 | 0.0 | 0.0 | 0.00 | 0.02 | 0.02 | 78 | 1024.3 | |
| 20260905180517 | 67 | 0.0 | 0.0 | 0.00 | 0.02 | 0.02 | 77 | 1024.1 | |
| 20260905175537 | 68 | 0.0 | 0.0 | 0.00 | 0.02 | 0.02 | 77 | 1024.0 | |
| 20260905174517 | 68 | 0.0 | 0.0 | 0.00 | 0.02 | 0.02 | 77 | 1024.0 | |
| 20260905173517 | 68 | 0.0 | 0.0 | 0.00 | 0.02 | 0.02 | 76 | 1023.8 | |
| 20260905172517 | 69 | 0.0 | 0.0 | 0.00 | 0.02 | 0.02 | 76 | 1023.8 | |
| 20260905171517 | 69 | 0.0 | 0.0 | 0.00 | 0.02 | 0.02 | 76 | 1023.8 | |
| 20260905170517 | 69 | 0.0 | 0.0 | 0.00 | 0.02 | 0.02 | 76 | 1023.7 | |
| 20260905165517 | 69 | 0.0 | 2.0 | 0.00 | 0.02 | 0.02 | 75 | 1023.8 | |
| 20260905164517 | 69 | 0.0 | 2.0 | 0.00 | 0.02 | 0.02 | 75 | 1023.7 | |
| 20260905163517 | 69 | 0.0 | 1.0 | 0.00 | 0.02 | 0.02 | 74 | 1023.6 | |
| 20260905162517 | 69 | 0.0 | 2.0 | 0.00 | 0.02 | 0.02 | 74 | 1023.5 | |
| 20260905161517 | 69 | 0.0 | 1.0 | 0.00 | 0.02 | 0.02 | 75 | 1023.7 | |
| 20260905160517 | 69 | 0.0 | 4.0 | 0.00 | 0.02 | 0.02 | 75 | 1023.6 | |
| 20260905155517 | 69 | 0.0 | 3.0 | 0.00 | 0.02 | 0.02 | 75 | 1023.4 | |
| 20260905154518 | 69 | 0.0 | 2.0 | 0.00 | 0.02 | 0.02 | 76 | 1023.4 | |
| 20260905153537 | 69 | 0.0 | 2.0 | 0.00 | 0.02 | 0.02 | 76 | 1023.5 | |
| 20260905152517 | 69 | 0.0 | 0.0 | 0.00 | 0.02 | 0.02 | 76 | 1023.5 | |
| 20260905151517 | 69 | 0.0 | 2.0 | 0.00 | 0.02 | 0.02 | 76 | 1023.7 | |
| 20260905150517 | 69 | 0.0 | 2.0 | 0.00 | 0.02 | 0.02 | 74 | 1023.7 | |
| 20260905145517 | 69 | 0.0 | 2.0 | 0.00 | 0.02 | 0.02 | 74 | 1023.8 | |
| 20260905144517 | 69 | 0.0 | 1.0 | 0.00 | 0.02 | 0.02 | 76 | 1023.9 | |
| 20260905143517 | 69 | 0.0 | 1.0 | 0.00 | 0.02 | 0.02 | 76 | 1023.9 | |
| 20260905142537 | 68 | 0.0 | 0.0 | 0.00 | 0.02 | 0.02 | 77 | 1024.0 | |
| 20260905141517 | 68 | 0.0 | 3.0 | 0.00 | 0.02 | 0.02 | 78 | 1024.1 | |
| 20260905140517 | 68 | 0.0 | 0.0 | 0.00 | 0.02 | 0.02 | 77 | 1024.1 | |
| 20260905135517 | 69 | 0.0 | 4.0 | 0.00 | 0.02 | 0.02 | 74 | 1024.3 | |
| 20260905134517 | 70 | 0.0 | 1.0 | 0.00 | 0.02 | 0.02 | 73 | 1024.2 | |
| 20260905133517 | 70 | 315 | 2.0 | 7.0 | 0.00 | 0.02 | 0.02 | 74 | 1024.1 |
| 20260905132517 | 71 | 0.0 | 3.0 | 0.00 | 0.02 | 0.02 | 76 | 1024.1 | |
| 20260905131517 | 71 | 315 | 1.0 | 4.0 | 0.00 | 0.02 | 0.02 | 75 | 1024.0 |
| 20260905130517 | 72 | 0.0 | 2.0 | 0.00 | 0.02 | 0.02 | 75 | 1023.6 | |
| 20260905125517 | 72 | 0.0 | 4.0 | 0.00 | 0.02 | 0.02 | 75 | 1023.8 | |
| 20260905124517 | 73 | 0.0 | 3.0 | 0.00 | 0.02 | 0.02 | 72 | 1023.6 | |
| 20260905123537 | 73 | 0.0 | 1.0 | 0.00 | 0.02 | 0.02 | 73 | 1023.6 | |
| 20260905122517 | 72 | 0.0 | 1.0 | 0.01 | 0.02 | 0.02 | 76 | 1023.5 | |
| 20260905121517 | 70 | 0.0 | 0.0 | 0.01 | 0.02 | 0.02 | 80 | 1023.4 | |
| 20260905120517 | 70 | 0.0 | 0.0 | 0.01 | 0.02 | 0.02 | 81 | 1023.5 | |
| 20260905115516 | 70 | 0.0 | 0.0 | 0.01 | 0.02 | 0.02 | 81 | 1023.6 | |
| 20260905114537 | 69 | 0.0 | 0.0 | 0.01 | 0.02 | 0.02 | 81 | 1023.7 | |
| 20260905113516 | 68 | 0.0 | 0.0 | 0.01 | 0.02 | 0.02 | 84 | 1023.5 | |
| 20260905112516 | 67 | 0.0 | 0.0 | 0.00 | 0.02 | 0.02 | 83 | 1023.5 | |
| 20260905111517 | 67 | 0.0 | 0.0 | 0.00 | 0.02 | 0.02 | 83 | 1023.5 | |
| 20260905110516 | 67 | 0.0 | 0.0 | 0.00 | 0.02 | 0.02 | 84 | 1023.2 | |
| 20260905105517 | 67 | 0.0 | 0.0 | 0.00 | 0.02 | 0.02 | 83 | 1023.4 | |
| 20260905104517 | 68 | 0.0 | 0.0 | 0.00 | 0.02 | 0.02 | 81 | 1023.4 | |
| 20260905103517 | 68 | 0.0 | 0.0 | 0.00 | 0.02 | 0.02 | 79 | 1023.3 | |
| 20260905102517 | 68 | 0.0 | 0.0 | 0.00 | 0.02 | 0.02 | 74 | 1023.5 | |
| 20260905101536 | 69 | 0.0 | 1.0 | 0.00 | 0.02 | 0.02 | 76 | 1023.5 | |
| 20260905100516 | 69 | 0.0 | 0.0 | 0.00 | 0.02 | 0.02 | 76 | 1023.3 | |
| 20260905095516 | 69 | 0.0 | 1.0 | 0.00 | 0.02 | 0.02 | 78 | 1023.4 | |
| 20260905094516 | 70 | 0.0 | 1.0 | 0.00 | 0.02 | 0.02 | 80 | 1023.4 | |
| 20260905093516 | 70 | 0.0 | 3.0 | 0.00 | 0.02 | 0.02 | 80 | 1023.2 | |
| 20260905092517 | 69 | 0.0 | 0.0 | 0.00 | 0.02 | 0.02 | 81 | 1023.1 | |
| 20260905091516 | 69 | 0.0 | 1.0 | 0.00 | 0.02 | 0.02 | 81 | 1023.1 | |
| 20260905090517 | 69 | 0.0 | 2.0 | 0.00 | 0.02 | 0.02 | 83 | 1023.1 | |
| 20260905085517 | 69 | 0.0 | 2.0 | 0.00 | 0.02 | 0.02 | 83 | 1023.0 | |
| 20260905084537 | 69 | 0.0 | 0.0 | 0.00 | 0.02 | 0.02 | 84 | 1023.0 | |
| 20260905083516 | 68 | 0.0 | 1.0 | 0.00 | 0.02 | 0.02 | 86 | 1022.9 | |
| 20260905082557 | 67 | 0.0 | 0.0 | 0.00 | 0.02 | 0.02 | 86 | 1022.5 |